| time (UTC) | temp C | wind direction | speed KPH | gust KPH | rain 1hr cm | rain 24hr cm | rain mn cm | humidity % | barometer mb |
| 20260504202140 | 25 | 242 | 4.8 | 4.8 | 0.00 | 0.00 | 0.00 | 30 | 1043.1 |
| 20260504201637 | 25 | 138 | 4.8 | 8.0 | 0.00 | 0.00 | 0.00 | 30 | 1043.3 |
| 20260504201135 | 25 | 180 | 1.6 | 3.2 | 0.00 | 0.00 | 0.00 | 32 | 1043.1 |
| 20260504200632 | 25 | 139 | 1.6 | 1.6 | 0.00 | 0.00 | 0.00 | 31 | 1043.5 |
| 20260504200128 | 25 | 166 | 1.6 | 1.6 | 0.00 | 0.00 | 0.00 | 31 | 1043.4 |
| 20260504195624 | 26 | 148 | 0.0 | 1.6 | 0.00 | 0.00 | 0.00 | 29 | 1043.5 |
| 20260504195121 | 25 | 164 | 3.2 | 3.2 | 0.00 | 0.00 | 0.00 | 29 | 1043.4 |
| 20260504194618 | 25 | 162 | 1.6 | 1.6 | 0.00 | 0.00 | 0.00 | 31 | 1043.8 |
| 20260504194114 | 24 | 216 | 3.2 | 3.2 | 0.00 | 0.00 | 0.00 | 31 | 1043.8 |
| 20260504193610 | 25 | 174 | 3.2 | 3.2 | 0.00 | 0.00 | 0.00 | 29 | 1043.7 |
| 20260504193109 | 25 | 134 | 1.6 | 3.2 | 0.00 | 0.00 | 0.00 | 29 | 1043.8 |
| 20260504192606 | 25 | 150 | 0.0 | 0.0 | 0.00 | 0.00 | 0.00 | 28 | 1044.0 |
| 20260504192103 | 25 | 140 | 11.3 | 12.9 | 0.00 | 0.00 | 0.00 | 29 | 1044.1 |
| 20260504191602 | 25 | 131 | 6.4 | 8.0 | 0.00 | 0.00 | 0.00 | 27 | 1043.8 |
| 20260504191058 | 25 | 129 | 3.2 | 4.8 | 0.00 | 0.00 | 0.00 | 28 | 1044.2 |
| 20260504190554 | 25 | 119 | 0.0 | 1.6 | 0.00 | 0.00 | 0.00 | 29 | 1044.1 |
| 20260504190050 | 24 | 174 | 4.8 | 4.8 | 0.00 | 0.00 | 0.00 | 32 | 1044.0 |
| 20260504185547 | 25 | 195 | 4.8 | 4.8 | 0.00 | 0.00 | 0.00 | 29 | 1044.3 |
| 20260504185044 | 24 | 143 | 4.8 | 4.8 | 0.00 | 0.00 | 0.00 | 29 | 1044.5 |
| 20260504184539 | 25 | 164 | 4.8 | 4.8 | 0.00 | 0.00 | 0.00 | 29 | 1044.6 |
| 20260504184035 | 26 | 203 | 1.6 | 3.2 | 0.00 | 0.00 | 0.00 | 27 | 1044.5 |
| 20260504183532 | 25 | 153 | 1.6 | 1.6 | 0.00 | 0.00 | 0.00 | 29 | 1044.6 |
| 20260504183030 | 25 | 160 | 1.6 | 1.6 | 0.00 | 0.00 | 0.00 | 29 | 1044.8 |
| 20260504182527 | 25 | 147 | 0.0 | 1.6 | 0.00 | 0.00 | 0.00 | 31 | 1044.7 |
| 20260504182024 | 25 | 125 | 3.2 | 3.2 | 0.00 | 0.00 | 0.00 | 29 | 1044.8 |
| 20260504181521 | 24 | 144 | 0.0 | 0.0 | 0.00 | 0.00 | 0.00 | 31 | 1044.9 |
| 20260504181014 | 24 | 148 | 0.0 | 0.0 | 0.00 | 0.00 | 0.00 | 31 | 1044.8 |
| 20260504180512 | 24 | 141 | 0.0 | 0.0 | 0.00 | 0.00 | 0.00 | 32 | 1045.0 |
| 20260504180011 | 23 | 172 | 1.6 | 3.2 | 0.00 | 0.00 | 0.00 | 32 | 1044.9 |
| 20260504175508 | 24 | 184 | 4.8 | 8.0 | 0.00 | 0.00 | 0.00 | 33 | 1045.0 |
| 20260504175005 | 23 | 178 | 3.2 | 4.8 | 0.00 | 0.00 | 0.00 | 33 | 1045.0 |
| 20260504174503 | 22 | 110 | 1.6 | 3.2 | 0.00 | 0.00 | 0.00 | 33 | 1045.1 |
| 20260504173959 | 23 | 112 | 1.6 | 1.6 | 0.00 | 0.00 | 0.00 | 33 | 1045.1 |
| 20260504173456 | 24 | 148 | 1.6 | 1.6 | 0.00 | 0.00 | 0.00 | 35 | 1045.2 |
| 20260504172953 | 23 | 96 | 1.6 | 4.8 | 0.00 | 0.00 | 0.00 | 32 | 1045.3 |
| 20260504172449 | 22 | 122 | 1.6 | 3.2 | 0.00 | 0.00 | 0.00 | 34 | 1045.3 |
| 20260504171946 | 23 | 128 | 1.6 | 3.2 | 0.00 | 0.00 | 0.00 | 32 | 1045.2 |
| 20260504171443 | 23 | 140 | 1.6 | 1.6 | 0.00 | 0.00 | 0.00 | 36 | 1045.5 |
| 20260504170940 | 23 | 172 | 3.2 | 3.2 | 0.00 | 0.00 | 0.00 | 34 | 1045.5 |
| 20260504170436 | 23 | 157 | 3.2 | 3.2 | 0.00 | 0.00 | 0.00 | 31 | 1045.8 |
| 20260504160355 | 21 | 113 | 3.2 | 3.2 | 0.00 | 0.00 | 0.00 | 39 | 1046.3 |
| 20260504150820 | 20 | 169 | 1.6 | 3.2 | 0.00 | 0.00 | 0.00 | 44 | 1046.8 |
| 20260504150316 | 20 | 142 | 1.6 | 1.6 | 0.00 | 0.00 | 0.00 | 45 | 1046.9 |
| 20260504141246 | 18 | 180 | 3.2 | 4.8 | 0.00 | 0.00 | 0.00 | 50 | 1047.0 |
| 20260504140743 | 18 | 147 | 4.8 | 8.0 | 0.00 | 0.00 | 0.00 | 49 | 1046.9 |
| 20260504140239 | 17 | 284 | 0.0 | 1.6 | 0.00 | 0.00 | 0.00 | 51 | 1046.9 |
| 20260504130708 | 15 | 143 | 0.0 | 0.0 | 0.00 | 0.00 | 0.00 | 69 | 1047.0 |
| 20260504130203 | 14 | 138 | 0.0 | 0.0 | 0.00 | 0.00 | 0.00 | 69 | 1047.0 |
| 20260504120127 | 8 | 137 | 0.0 | 0.0 | 0.00 | 0.00 | 0.00 | 92 | 1046.9 |
| 20260504110555 | 5 | 136 | 0.0 | 0.0 | 0.00 | 0.00 | 0.00 | 92 | 1046.5 |
| 20260504100517 | 5 | 138 | 0.0 | 0.0 | 0.00 | 0.00 | 0.00 | 92 | 1046.3 |
| 20260504081910 | 5 | 137 | 0.0 | 0.0 | 0.00 | 0.00 | 0.00 | 91 | 1046.5 |
| 20260504081406 | 5 | 137 | 0.0 | 0.0 | 0.00 | 0.00 | 0.00 | 91 | 1046.3 |
| 20260504080903 | 5 | 137 | 0.0 | 0.0 | 0.00 | 0.00 | 0.00 | 91 | 1046.3 |
| 20260504080400 | 5 | 137 | 0.0 | 0.0 | 0.00 | 0.00 | 0.00 | 91 | 1046.4 |
| 20260504070327 | 6 | 137 | 0.0 | 0.0 | 0.00 | 0.00 | 0.00 | 89 | 1046.4 |
| 20260504060247 | 7 | 149 | 0.0 | 0.0 | 0.00 | 0.00 | 0.00 | 86 | 1046.5 |
| 20260504050715 | 7 | 142 | 0.0 | 0.0 | 0.00 | 0.00 | 0.00 | 84 | 1047.1 |
| 20260504050212 | 7 | 142 | 0.0 | 0.0 | 0.00 | 0.00 | 0.00 | 84 | 1047.1 |
| 20260504045710 | 7 | 142 | 0.0 | 0.0 | 0.00 | 0.00 | 0.00 | 84 | 1047.0 |
| 20260504045209 | 8 | 142 | 0.0 | 0.0 | 0.00 | 0.00 | 0.00 | 83 | 1047.0 |
| 20260504044708 | 8 | 142 | 0.0 | 0.0 | 0.00 | 0.00 | 0.00 | 82 | 1046.9 |
| 20260504044204 | 8 | 142 | 0.0 | 0.0 | 0.00 | 0.00 | 0.00 | 81 | 1047.0 |
| 20260504043701 | 8 | 143 | 0.0 | 0.0 | 0.00 | 0.00 | 0.00 | 80 | 1047.3 |
| 20260504043158 | 8 | 143 | 0.0 | 0.0 | 0.00 | 0.00 | 0.00 | 79 | 1046.9 |
| 20260504042656 | 8 | 143 | 0.0 | 0.0 | 0.00 | 0.00 | 0.00 | 79 | 1047.1 |
| 20260504042152 | 8 | 143 | 0.0 | 0.0 | 0.00 | 0.00 | 0.00 | 78 | 1047.1 |
| 20260504041648 | 9 | 142 | 0.0 | 0.0 | 0.00 | 0.00 | 0.00 | 78 | 1047.1 |
| 20260504041144 | 9 | 148 | 0.0 | 0.0 | 0.00 | 0.00 | 0.00 | 77 | 1047.0 |
| 20260504040641 | 9 | 148 | 0.0 | 0.0 | 0.00 | 0.00 | 0.00 | 77 | 1046.9 |
| 20260504040138 | 10 | 147 | 0.0 | 0.0 | 0.00 | 0.00 | 0.00 | 76 | 1047.2 |
| 20260504035635 | 10 | 147 | 0.0 | 0.0 | 0.00 | 0.00 | 0.00 | 74 | 1047.1 |
| 20260504035132 | 10 | 151 | 0.0 | 0.0 | 0.00 | 0.00 | 0.00 | 72 | 1047.1 |
| 20260504034630 | 10 | 150 | 0.0 | 0.0 | 0.00 | 0.00 | 0.00 | 69 | 1046.8 |
| 20260504034126 | 10 | 156 | 0.0 | 0.0 | 0.00 | 0.00 | 0.00 | 69 | 1047.0 |
| 20260504033624 | 10 | 150 | 0.0 | 0.0 | 0.00 | 0.00 | 0.00 | 72 | 1047.0 |
| 20260504033121 | 9 | 173 | 1.6 | 3.2 | 0.00 | 0.00 | 0.00 | 73 | 1047.2 |
| 20260504032618 | 9 | 179 | 1.6 | 1.6 | 0.00 | 0.00 | 0.00 | 76 | 1047.0 |
| 20260504032115 | 9 | 146 | 0.0 | 0.0 | 0.00 | 0.00 | 0.00 | 75 | 1046.8 |
| 20260504031612 | 9 | 146 | 0.0 | 0.0 | 0.00 | 0.00 | 0.00 | 76 | 1047.1 |
| 20260504031108 | 9 | 146 | 0.0 | 0.0 | 0.00 | 0.00 | 0.00 | 77 | 1046.8 |
| 20260504030605 | 10 | 145 | 0.0 | 0.0 | 0.00 | 0.00 | 0.00 | 75 | 1046.9 |
| 20260504025559 | 10 | 145 | 0.0 | 0.0 | 0.00 | 0.00 | 0.00 | 75 | 1046.9 |
| 20260504025055 | 10 | 145 | 0.0 | 0.0 | 0.00 | 0.00 | 0.00 | 74 | 1046.9 |
| 20260504024553 | 10 | 145 | 0.0 | 0.0 | 0.00 | 0.00 | 0.00 | 74 | 1046.8 |
| 20260504024049 | 10 | 145 | 0.0 | 0.0 | 0.00 | 0.00 | 0.00 | 73 | 1046.7 |
| 20260504023546 | 11 | 145 | 0.0 | 0.0 | 0.00 | 0.00 | 0.00 | 72 | 1046.7 |
| 20260504023042 | 11 | 145 | 0.0 | 0.0 | 0.00 | 0.00 | 0.00 | 71 | 1046.5 |
| 20260504022538 | 11 | 145 | 0.0 | 0.0 | 0.00 | 0.00 | 0.00 | 70 | 1046.6 |
| 20260504022034 | 11 | 147 | 0.0 | 0.0 | 0.00 | 0.00 | 0.00 | 70 | 1046.5 |
| 20260504021532 | 11 | 147 | 0.0 | 0.0 | 0.00 | 0.00 | 0.00 | 69 | 1046.2 |
| 20260504021029 | 11 | 147 | 0.0 | 0.0 | 0.00 | 0.00 | 0.00 | 70 | 1046.4 |
| 20260504020526 | 11 | 147 | 0.0 | 0.0 | 0.00 | 0.00 | 0.00 | 68 | 1046.4 |
| 20260504020022 | 11 | 147 | 0.0 | 0.0 | 0.00 | 0.00 | 0.00 | 66 | 1046.2 |
| 20260504015518 | 11 | 147 | 0.0 | 0.0 | 0.00 | 0.00 | 0.00 | 66 | 1045.9 |
| 20260504015015 | 11 | 148 | 0.0 | 0.0 | 0.00 | 0.00 | 0.00 | 65 | 1046.1 |
| 20260504014511 | 11 | 148 | 0.0 | 0.0 | 0.00 | 0.00 | 0.00 | 64 | 1045.8 |
| 20260504014008 | 12 | 147 | 0.0 | 0.0 | 0.00 | 0.00 | 0.00 | 61 | 1046.1 |
| 20260504013506 | 12 | 147 | 0.0 | 0.0 | 0.00 | 0.00 | 0.00 | 60 | 1045.8 |
| 20260504013002 | 12 | 147 | 0.0 | 0.0 | 0.00 | 0.00 | 0.00 | 62 | 1045.6 |
| 20260504012500 | 12 | 147 | 0.0 | 0.0 | 0.00 | 0.00 | 0.00 | 62 | 1045.7 |
| 20260504011958 | 12 | 148 | 0.0 | 0.0 | 0.00 | 0.00 | 0.00 | 58 | 1045.7 |
| 20260504011454 | 13 | 149 | 0.0 | 0.0 | 0.00 | 0.00 | 0.00 | 55 | 1045.7 |
| 20260504010950 | 13 | 157 | 0.0 | 0.0 | 0.00 | 0.00 | 0.00 | 55 | 1045.5 |
| 20260504010446 | 13 | 158 | 0.0 | 0.0 | 0.00 | 0.00 | 0.00 | 55 | 1045.4 |
| 20260504005942 | 13 | 151 | 0.0 | 0.0 | 0.00 | 0.00 | 0.00 | 56 | 1045.5 |
| 20260504005439 | 13 | 151 | 0.0 | 0.0 | 0.00 | 0.00 | 0.00 | 56 | 1045.4 |
| 20260504004937 | 13 | 150 | 0.0 | 0.0 | 0.00 | 0.00 | 0.00 | 52 | 1045.5 |
| 20260504004434 | 14 | 150 | 0.0 | 0.0 | 0.00 | 0.00 | 0.00 | 51 | 1045.4 |
| 20260504003931 | 14 | 150 | 0.0 | 0.0 | 0.00 | 0.00 | 0.00 | 52 | 1045.4 |
| 20260504003427 | 15 | 150 | 0.0 | 0.0 | 0.00 | 0.00 | 0.00 | 50 | 1045.3 |
| 20260504002924 | 15 | 150 | 0.0 | 0.0 | 0.00 | 0.00 | 0.00 | 48 | 1045.2 |
| 20260504002421 | 15 | 150 | 0.0 | 0.0 | 0.00 | 0.00 | 0.00 | 49 | 1045.3 |
| 20260504001918 | 16 | 150 | 0.0 | 0.0 | 0.00 | 0.00 | 0.00 | 49 | 1045.1 |
| 20260504001416 | 16 | 152 | 0.0 | 0.0 | 0.00 | 0.00 | 0.00 | 49 | 1045.1 |
| 20260504000912 | 16 | 147 | 0.0 | 0.0 | 0.00 | 0.00 | 0.00 | 47 | 1045.1 |
| 20260504000409 | 17 | 148 | 0.0 | 0.0 | 0.00 | 0.00 | 0.00 | 43 | 1045.2 |
| 20260503235907 | 17 | 149 | 0.0 | 0.0 | 0.00 | 0.00 | 0.00 | 41 | 1045.2 |
| 20260503235405 | 17 | 147 | 0.0 | 0.0 | 0.00 | 0.00 | 0.00 | 38 | 1044.9 |
| 20260503234902 | 18 | 146 | 0.0 | 0.0 | 0.00 | 0.00 | 0.00 | 36 | 1045.1 |
| 20260503234359 | 18 | 147 | 0.0 | 0.0 | 0.00 | 0.00 | 0.00 | 35 | 1045.0 |
| 20260503233857 | 19 | 145 | 0.0 | 0.0 | 0.00 | 0.00 | 0.00 | 37 | 1045.2 |
| 20260503233353 | 19 | 145 | 0.0 | 0.0 | 0.00 | 0.00 | 0.00 | 35 | 1045.1 |
| 20260503232849 | 19 | 157 | 0.0 | 0.0 | 0.00 | 0.00 | 0.00 | 33 | 1045.2 |
| 20260503232347 | 19 | 158 | 1.6 | 1.6 | 0.00 | 0.00 | 0.00 | 31 | 1045.1 |
| 20260503231845 | 19 | 141 | 0.0 | 0.0 | 0.00 | 0.00 | 0.00 | 33 | 1045.2 |
| 20260503231341 | 20 | 146 | 0.0 | 0.0 | 0.00 | 0.00 | 0.00 | 32 | 1045.2 |
| 20260503230838 | 20 | 181 | 0.0 | 1.6 | 0.00 | 0.00 | 0.00 | 31 | 1045.2 |
| 20260503230334 | 20 | 157 | 0.0 | 0.0 | 0.00 | 0.00 | 0.00 | 30 | 1045.3 |
| 20260503225833 | 20 | 143 | 0.0 | 0.0 | 0.00 | 0.00 | 0.00 | 30 | 1045.2 |
| 20260503225328 | 20 | 146 | 0.0 | 1.6 | 0.00 | 0.00 | 0.00 | 29 | 1045.0 |
| 20260503224824 | 20 | 188 | 3.2 | 3.2 | 0.00 | 0.00 | 0.00 | 29 | 1045.2 |
| 20260503224322 | 20 | 141 | 1.6 | 1.6 | 0.00 | 0.00 | 0.00 | 30 | 1045.3 |
| 20260503223820 | 20 | 129 | 1.6 | 1.6 | 0.00 | 0.00 | 0.00 | 29 | 1045.4 |
| 20260503223317 | 20 | 146 | 1.6 | 1.6 | 0.00 | 0.00 | 0.00 | 30 | 1045.1 |
| 20260503222812 | 20 | 149 | 3.2 | 3.2 | 0.00 | 0.00 | 0.00 | 28 | 1045.4 |
| 20260503222311 | 20 | 160 | 1.6 | 3.2 | 0.00 | 0.00 | 0.00 | 29 | 1045.5 |
| 20260503221809 | 20 | 146 | 0.0 | 1.6 | 0.00 | 0.00 | 0.00 | 28 | 1045.4 |
| 20260503221307 | 20 | 128 | 0.0 | 1.6 | 0.00 | 0.00 | 0.00 | 29 | 1045.3 |
| 20260503220803 | 20 | 157 | 0.0 | 1.6 | 0.00 | 0.00 | 0.00 | 30 | 1045.4 |
| 20260503220300 | 20 | 142 | 0.0 | 1.6 | 0.00 | 0.00 | 0.00 | 29 | 1045.3 |
| 20260503215757 | 20 | 141 | 0.0 | 1.6 | 0.00 | 0.00 | 0.00 | 25 | 1045.5 |
| 20260503215253 | 20 | 227 | 3.2 | 3.2 | 0.00 | 0.00 | 0.00 | 26 | 1045.4 |
| 20260503214752 | 21 | 122 | 1.6 | 1.6 | 0.00 | 0.00 | 0.00 | 28 | 1045.4 |
| 20260503214248 | 21 | 190 | 3.2 | 3.2 | 0.00 | 0.00 | 0.00 | 27 | 1045.5 |
| 20260503213746 | 21 | 197 | 3.2 | 4.8 | 0.00 | 0.00 | 0.00 | 26 | 1045.6 |
| 20260503213243 | 21 | 112 | 3.2 | 3.2 | 0.00 | 0.00 | 0.00 | 29 | 1045.4 |
| 20260503212740 | 21 | 149 | 0.0 | 1.6 | 0.00 | 0.00 | 0.00 | 27 | 1045.6 |
| 20260503212238 | 21 | 185 | 1.6 | 1.6 | 0.00 | 0.00 | 0.00 | 27 | 1045.4 |
| 20260503211735 | 22 | 150 | 1.6 | 3.2 | 0.00 | 0.00 | 0.00 | 27 | 1045.5 |
| 20260503211231 | 21 | 149 | 3.2 | 3.2 | 0.00 | 0.00 | 0.00 | 27 | 1045.6 |
| 20260503210727 | 21 | 267 | 6.4 | 8.0 | 0.00 | 0.00 | 0.00 | 28 | 1045.6 |
| 20260503210225 | 22 | 211 | 8.0 | 9.7 | 0.00 | 0.00 | 0.00 | 26 | 1045.7 |
| 20260503205720 | 22 | 140 | 1.6 | 1.6 | 0.00 | 0.00 | 0.00 | 30 | 1045.7 |
| 20260503205216 | 21 | 148 | 0.0 | 1.6 | 0.00 | 0.00 | 0.00 | 29 | 1045.8 |
| 20260503204713 | 21 | 154 | 0.0 | 1.6 | 0.00 | 0.00 | 0.00 | 27 | 1045.7 |
| 20260503204211 | 22 | 160 | 6.4 | 9.7 | 0.00 | 0.00 | 0.00 | 27 | 1045.8 |
| 20260503203707 | 22 | 140 | 0.0 | 0.0 | 0.00 | 0.00 | 0.00 | 28 | 1045.8 |
| 20260503203205 | 21 | 348 | 3.2 | 3.2 | 0.00 | 0.00 | 0.00 | 32 | 1045.8 |
| 20260503202702 | 21 | 168 | 1.6 | 1.6 | 0.00 | 0.00 | 0.00 | 32 | 1046.1 |